Weather History for Hall Beach, NU

Change the Weather History Date:

Thursday, October 25, 2012

  Actual Average Record
Temperature  
Mean Temperature 19 °F -  
Max Temperature 21 °F 17 °F 32 °F (2004)
Min Temperature 17 °F 5 °F -7 °F (1997)
Degree Days  
Heating Degree Days 46    
Moisture  
Dew Point 19 °F    
Average Humidity 95    
Maximum Humidity 100    
Minimum Humidity 93    
Precipitation  
Precipitation 0.00 in - - ()
Sea Level Pressure  
Sea Level Pressure 30.08 in    
Wind  
Wind Speed 15 mph ()    
Max Wind Speed 22 mph    
Max Gust Speed 28 mph    
Visibility 7.1 miles    
Events Snow    
Averages and records for this station are not official NWS values.
T = Trace of Precipitation, MM = Missing Value Source: Averaged Metar Reports

Daily Weather History Graph

Daily Weather History Graph

Search for Another Location

Airport:

Trip Planner

Search our weather history database for the weather conditions in past years. The results will help you decide how hot, cold, wet, or windy it might be!

Date:

Astronomy

Oct. 25, 2012 Rise Set
Actual Time 9:15 AM EDT 5:01 PM EDT
Civil Twilight 8:11 AM EDT 6:05 PM EDT
Nautical Twilight 7:03 AM EDT 7:12 PM EDT
Astronomical Twilight 5:56 AM EDT 8:19 PM EDT
Moon 4:19 PM EDT (10/25) 3:20 AM EDT (10/25)
Length of Visible Light 9h 54m
Length of Day
7h 46m
Waxing Gibbous, 84% of the Moon is Illuminated
Oct 25
Waxing Gibbous
Oct 29
Full
Nov 6
Last Quarter
Nov 13
New
Nov 20
First Quarter

Hourly Weather History & Observations

Time (EDT) Temp. Windchill Dew Point Humidity Pressure Visibility Wind Dir Wind Speed Gust Speed Precip Events Conditions
12:00 AM 21.2 °F 7.8 °F 19.4 °F 93% 30.31 in 9.0 mi North 15.0 mph - N/A   Overcast
12:09 AM 19.4 °F 6.0 °F 19.4 °F 100% 30.31 in 9.0 mi North 13.8 mph - N/A   Overcast
1:00 AM 19.4 °F 5.5 °F 19.4 °F 100% 30.29 in - NNW 15.0 mph - N/A   Overcast
2:46 AM 19.4 °F 4.5 °F 17.6 °F 93% 30.26 in 9.0 mi North 17.3 mph - N/A   Overcast
3:00 AM 19.4 °F 5.0 °F 17.6 °F 93% 30.25 in 9.0 mi NNW 16.1 mph - N/A   Overcast
4:00 AM 19.4 °F 4.5 °F 17.6 °F 93% 30.23 in 9.0 mi North 17.3 mph - N/A   Overcast
5:00 AM 19.4 °F 4.5 °F 19.4 °F 100% 30.22 in 9.0 mi NNW 17.3 mph - N/A   Overcast
5:20 AM 21.2 °F 6.4 °F 19.4 °F 93% 30.22 in 9.0 mi North 18.4 mph - N/A Snow Light Snow
5:30 AM 21.2 °F 5.6 °F 19.4 °F 93% 30.21 in 7.0 mi North 20.7 mph - N/A   Overcast
5:31 AM 21.2 °F 6.0 °F 19.4 °F 93% 30.21 in 6.0 mi North 19.6 mph - N/A Snow Light Snow
5:56 AM 21.2 °F 5.2 °F 19.4 °F 93% 30.20 in 9.0 mi North 21.9 mph - N/A   Overcast
5:57 AM 21.2 °F 5.6 °F 19.4 °F 93% 30.20 in 9.0 mi North 20.7 mph - N/A Snow Light Snow
6:00 AM 21.2 °F 5.6 °F 19.4 °F 93% 30.20 in 9.0 mi North 20.7 mph - N/A Snow Light Snow
6:21 AM 21.2 °F 6.4 °F 19.4 °F 93% 30.19 in 8.0 mi North 18.4 mph - N/A   Overcast
6:24 AM 21.2 °F 5.6 °F 19.4 °F 93% 30.19 in - North 20.7 mph - N/A Snow Light Snow
6:25 AM 21.2 °F 5.6 °F 19.4 °F 93% 30.19 in - North 20.7 mph - N/A   Overcast
6:26 AM 21.2 °F 5.6 °F 19.4 °F 93% 30.19 in - North 20.7 mph - N/A Snow Light Snow
6:35 AM 21.2 °F 5.2 °F 19.4 °F 93% 30.19 in 9.0 mi North 21.9 mph - N/A   Overcast
6:36 AM 21.2 °F 5.2 °F 19.4 °F 93% 30.19 in 9.0 mi North 21.9 mph - N/A Snow Light Snow
6:58 AM 21.2 °F 6.0 °F 19.4 °F 93% 30.18 in 9.0 mi North 19.6 mph - N/A   Overcast
7:00 AM 21.2 °F 6.0 °F 19.4 °F 93% 30.18 in 9.0 mi North 19.6 mph - N/A   Overcast
7:51 AM 21.2 °F 5.2 °F 19.4 °F 93% 30.16 in 9.0 mi North 21.9 mph - N/A Snow Light Snow
7:52 AM 21.2 °F 5.2 °F 19.4 °F 93% 30.16 in 9.0 mi North 21.9 mph 27.6 mph N/A   Overcast
7:54 AM 21.2 °F 5.2 °F 19.4 °F 93% 30.16 in 9.0 mi North 21.9 mph - N/A Snow Light Snow
9:00 AM 21.2 °F 6.0 °F 19.4 °F 93% 30.15 in 15.0 mi North 19.6 mph - N/A Snow Low Drifting Snow
10:00 AM 21.2 °F 6.0 °F 19.4 °F 93% 30.13 in 15.0 mi North 19.6 mph - N/A Snow Low Drifting Snow
11:00 AM 21.2 °F 7.8 °F 19.4 °F 93% 30.11 in 15.0 mi North 15.0 mph - N/A Snow Low Drifting Snow
12:00 PM 17.6 °F 3.2 °F 15.8 °F 93% 30.09 in 15.0 mi NNW 15.0 mph - N/A Snow Low Drifting Snow
1:00 PM 19.4 °F 6.0 °F 17.6 °F 93% 30.08 in 15.0 mi NNW 13.8 mph - N/A   Mostly Cloudy
2:00 PM 19.4 °F 6.0 °F 17.6 °F 93% 30.07 in 15.0 mi NNW 13.8 mph - N/A   Mostly Cloudy
3:00 PM 21.2 °F 8.3 °F 19.4 °F 93% 30.06 in 15.0 mi NW 13.8 mph - N/A   Overcast
4:00 PM 21.2 °F 8.3 °F 19.4 °F 93% 30.06 in 15.0 mi NNW 13.8 mph - N/A   Overcast
5:00 PM 21.2 °F 7.8 °F 19.4 °F 93% 30.05 in 15.0 mi NNW 15.0 mph - N/A   Overcast
5:18 PM 21.2 °F 8.3 °F 19.4 °F 93% 30.05 in 5.0 mi NNW 13.8 mph - N/A   Overcast
5:26 PM 21.2 °F 7.3 °F 19.4 °F 93% 30.05 in 3.0 mi NNW 16.1 mph - N/A Snow Light Snow
6:00 PM 21.2 °F 7.3 °F 21.2 °F 100% 30.04 in 5.0 mi NNW 16.1 mph - N/A Snow Light Snow
7:00 PM 21.2 °F 8.3 °F 21.2 °F 100% 30.03 in 5.0 mi NNW 13.8 mph - N/A Snow Light Snow
8:00 PM 21.2 °F 7.3 °F 19.4 °F 93% 30.01 in 3.0 mi NNW 16.1 mph - N/A Snow Light Snow
8:09 PM 21.2 °F 7.3 °F 19.4 °F 93% 30.02 in 6.0 mi NNW 16.1 mph - N/A Snow Light Snow
8:19 PM 21.2 °F 7.8 °F 19.4 °F 93% 30.02 in 5.0 mi NNW 15.0 mph - N/A Snow Light Snow
8:33 PM 21.2 °F 8.3 °F 19.4 °F 93% 30.02 in 4.0 mi NNW 13.8 mph - N/A   Overcast
8:34 PM 21.2 °F 8.3 °F 19.4 °F 93% 30.02 in 4.0 mi NNW 13.8 mph - N/A Snow Light Snow
8:36 PM 21.2 °F 7.8 °F 19.4 °F 93% 30.02 in 3.0 mi NNW 15.0 mph - N/A   Overcast
8:37 PM 21.2 °F 7.8 °F 21.2 °F 100% 30.02 in 3.0 mi NNW 15.0 mph - N/A Snow Light Snow
8:38 PM 21.2 °F 7.8 °F 19.4 °F 93% 30.02 in 3.0 mi NNW 15.0 mph - N/A   Overcast
8:39 PM 21.2 °F 7.3 °F 19.4 °F 93% 30.02 in 3.0 mi NNW 16.1 mph - N/A Snow Light Snow
8:42 PM 21.2 °F 7.8 °F 19.4 °F 93% 30.02 in 3.0 mi NNW 15.0 mph - N/A   Overcast
8:43 PM 21.2 °F 7.8 °F 21.2 °F 100% 30.02 in 3.0 mi NNW 15.0 mph - N/A Snow Light Snow
8:48 PM 21.2 °F 7.8 °F 21.2 °F 100% 30.02 in 3.0 mi NNW 15.0 mph - N/A   Overcast
8:49 PM 21.2 °F 7.8 °F 21.2 °F 100% 30.02 in 3.0 mi NNW 15.0 mph - N/A Snow Light Snow
8:56 PM 21.2 °F 7.8 °F 21.2 °F 100% 30.02 in 5.0 mi NNW 15.0 mph - N/A   Overcast
8:57 PM 21.2 °F 7.8 °F 21.2 °F 100% 30.02 in 5.0 mi NNW 15.0 mph - N/A Snow Light Snow
8:58 PM 21.2 °F 8.3 °F 21.2 °F 100% 30.02 in 5.0 mi NNW 13.8 mph - N/A   Overcast
8:59 PM 21.2 °F 8.3 °F 21.2 °F 100% 30.02 in 5.0 mi NNW 13.8 mph - N/A Snow Light Snow
9:00 PM 21.2 °F 8.3 °F 21.2 °F 100% 30.02 in 5.0 mi NNW 13.8 mph - N/A Snow Light Snow
9:22 PM 21.2 °F 8.3 °F 21.2 °F 100% 30.01 in 6.0 mi NNW 13.8 mph - N/A Snow Light Snow
9:27 PM 21.2 °F 7.8 °F 21.2 °F 100% 30.01 in 5.0 mi NNW 15.0 mph - N/A Snow Light Snow
9:30 PM 21.2 °F 7.8 °F 21.2 °F 100% 30.01 in 5.0 mi NNW 15.0 mph - N/A   Overcast
9:32 PM 21.2 °F 7.8 °F 21.2 °F 100% 30.01 in 4.0 mi NNW 15.0 mph - N/A Snow Light Snow
9:42 PM 21.2 °F 7.8 °F 19.4 °F 93% 30.01 in 4.0 mi NNW 15.0 mph - N/A   Overcast
9:43 PM 21.2 °F 8.3 °F 19.4 °F 93% 30.01 in 4.0 mi NNW 13.8 mph - N/A Snow Light Snow
9:48 PM 21.2 °F 7.8 °F 21.2 °F 100% 30.01 in 4.0 mi NNW 15.0 mph - N/A Snow Light Snow
9:55 PM 21.2 °F 7.8 °F 19.4 °F 93% 30.01 in 4.0 mi NNW 15.0 mph - N/A   Overcast
9:58 PM 21.2 °F 8.3 °F 19.4 °F 93% 30.01 in - NNW 13.8 mph - N/A Snow Light Snow
9:59 PM 21.2 °F 8.3 °F 19.4 °F 93% 30.01 in 4.0 mi NNW 13.8 mph - N/A   Overcast
10:00 PM 21.2 °F 7.8 °F 19.4 °F 93% 30.01 in 4.0 mi NNW 15.0 mph - N/A Snow Light Snow
10:56 PM 19.4 °F 6.0 °F 17.6 °F 93% 30.01 in 3.0 mi NW 13.8 mph - N/A   Overcast
11:00 PM 19.4 °F 6.0 °F 17.6 °F 93% 30.01 in 3.0 mi NW 13.8 mph - N/A Snow Light Snow
11:15 PM 19.4 °F 6.6 °F 17.6 °F 93% 30.01 in 3.0 mi NW 12.7 mph - N/A   Overcast
11:16 PM 19.4 °F 6.6 °F 17.6 °F 93% 30.01 in 3.0 mi NW 12.7 mph - N/A   Overcast
11:23 PM 19.4 °F 6.6 °F 17.6 °F 93% 30.01 in - NW 12.7 mph - N/A Snow Light Snow
11:26 PM 19.4 °F 6.6 °F 17.6 °F 93% 30.01 in 5.0 mi NW 12.7 mph - N/A   Overcast
11:27 PM 19.4 °F 6.6 °F 17.6 °F 93% 30.01 in 5.0 mi NW 12.7 mph - N/A Snow Light Snow
11:28 PM 19.4 °F 6.6 °F 17.6 °F 93% 30.01 in 5.0 mi NW 12.7 mph - N/A Snow Light Snow
11:29 PM 19.4 °F 6.6 °F 17.6 °F 93% 30.01 in 6.0 mi NW 12.7 mph - N/A Snow Light Snow
11:32 PM 19.4 °F 6.6 °F 17.6 °F 93% 30.01 in 8.0 mi NW 12.7 mph - N/A Snow Light Snow
11:33 PM 19.4 °F 6.6 °F 17.6 °F 93% 30.01 in 9.0 mi NW 12.7 mph - N/A   Overcast
11:34 PM 19.4 °F 6.6 °F 17.6 °F 93% 30.01 in 9.0 mi NW 12.7 mph - N/A Snow Light Snow
11:40 PM 19.4 °F 6.0 °F 17.6 °F 93% 30.01 in 9.0 mi NW 13.8 mph - N/A Snow Light Snow
11:42 PM 19.4 °F 6.6 °F 17.6 °F 93% 30.01 in 9.0 mi NW 12.7 mph - N/A   Overcast
11:43 PM 19.4 °F 6.6 °F 17.6 °F 93% 30.01 in 9.0 mi NW 12.7 mph - N/A Snow Light Snow
11:46 PM 19.4 °F 6.0 °F 17.6 °F 93% 30.01 in 9.0 mi NW 13.8 mph - N/A   Overcast
11:47 PM 19.4 °F 6.0 °F 17.6 °F 93% 30.01 in 9.0 mi NW 13.8 mph - N/A Snow Light Snow
11:50 PM 19.4 °F 6.0 °F 17.6 °F 93% 30.01 in 9.0 mi NW 13.8 mph - N/A   Overcast
11:51 PM 19.4 °F 6.0 °F 17.6 °F 93% 30.01 in 9.0 mi NW 13.8 mph - N/A Snow Light Snow